Regional Weather Roundup
Issued by NWS

Home | Current Version | Previous Version | Text Only | Print | Product List | Glossary Off
Versions: 1 2 3 4 5 6 7 8 9 10 11 12 13 14 15 16 17 18 19 20 21 22 23 24 25 26 27 28 29 30 31 32 33 34 35 36 37 38 39 40 41 42 43 44 45 46 47 48 49 50

429
ASUS45 KBOI 240410
RWRID

IDAHO REGIONAL WEATHER ROUNDUP
NATIONAL WEATHER SERVICE BOISE ID
1000 PM MDT THU MAR 23 2017

NOTE: "FAIR" INDICATES FEW OR NO CLOUDS BELOW 12000 FEET
WITH NO SIGNIFICANT WEATHER AND/OR OBSTRUCTIONS TO VISIBILITY

IDZ012-014-240500-
SOUTHWEST IDAHO


CITY           SKY/WX    TMP DP  RH WIND       PRES   REMARKS
BOISE          CLEAR     44  27  51 SE8       30.04R
CALDWELL       CLEAR     44  30  57 NE6       30.03R
MOUNTAIN HOME  CLEAR     46  30  53 E3        30.05R
$$

IDZ016-017-240500-
SOUTHCENTRAL IDAHO


CITY           SKY/WX    TMP DP  RH WIND       PRES   REMARKS
BURLEY         CLEAR     39  26  59 S9        30.06R WCI  33
JEROME         CLEAR     40  26  57 SW8       30.06R WCI  34
TWIN FALLS     CLEAR     38  27  64 SW12      30.07R WCI  30
$$

IDZ019>023-240500-
SOUTHEAST IDAHO


CITY           SKY/WX    TMP DP  RH WIND       PRES   REMARKS
IDAHO FALLS    PTCLDY    44  33  65 S16       30.01R
POCATELLO      CLEAR     42  23  46 SW16      30.06R
REXBURG        CLEAR     40  22  48 S3        29.98R
$$

IDZ006-010-011-018-031-032-240500-
CENTRAL IDAHO MOUNTAINS


CITY           SKY/WX    TMP DP  RH WIND       PRES   REMARKS
MCCALL         CLEAR     32  23  69 NE3       30.01S
HAILEY         CLEAR     36  30  80 CALM      30.05R
STANLEY          N/A     26  19  74 CALM      30.05R
SALMON         CLEAR     37  21  52 CALM      30.00R
CHALLIS        CLEAR     38  21  50 VRB5      30.01R WCI  34
$$

IDZ002-004-006-007-026-240500-
NORTHERN IDAHO


CITY           SKY/WX    TMP DP  RH WIND       PRES   REMARKS
LEWISTON       CLEAR     47  31  53 E5        30.01S
LOWELL           N/A     39  35  86 NW6       30.08R WCI  35
COEUR D`ALENE  CLEAR     34  29  82 E5        30.04R WCI  30
MULLAN PASS    CLEAR     25  22  88 SE5       29.99S WCI  19
$$




USA.gov is the U.S. government's official web portal to all federal, state and local government web resources and services.